Zurück zum Katalog

CZ-6A DEB

AktivPO
NORAD 61422·DEBRIS·🇨🇳 China

Gestartet Aug 6, 2024 von Taiyuan Satellite Launch Center

Loading…

Nächste Überflüge (nächste 24 Stunden)

TLE

AktuellSource: Space-Track

Epoche: Sep 14, 2026, 22:33 UTC

1 61422U 24140YP  26257.93978565  .00000656  00000-0  42891-3 0  9994
2 61422  88.7419 246.4684 0200652  38.1772 323.3420 13.91645919104876

Verfolge CZ-6A DEB in Echtzeit mit AllMySat

Download on the App Store